Flag for Canada Weather past 2 weeks in Morden, Manitoba, Canada

Now
15 °F

Cold.


Feels Like: 6 °F
Forecast: 7 / 31 °F
Wind: 7 mph from North

Location: Morden CDA CS

Current Time: Jan 24, 2015 at 9:51:41 PM

Latest Report: Jan 24, 2015 at 9:00 PM


Visibility: N/A

Pressure: 29.95 "Hg

Humidity: 80%

Dew point: 10 °F

Location of MordenLocation

Historic Weather in Morden — Graph

°F

Morden temperature yesterday

Maximum temperature yesterday: 40 °F (at 1:00 AM)
Minimum temperature yesterday: 34 °F (at 10:00 PM)
Average temperature yesterday: 38 °F

Past Weeks' High & Low Weather Summary

 TemperatureHumidityPressure
High40 °F (Jan 23, 1:00 AM)97% (Jan 20, 6:00 PM)30.90 "Hg (Jan 20, 6:00 PM)
Low-17 °F (Jan 12, 6:00 AM)48% (Jan 10, 9:00 AM)29.34 "Hg (Jan 17, 2:00 AM)
Average16 °F77%30.06 "Hg
* Reported Jan 9 8:00 PM — Jan 24 8:00 PM, Morden, Weather by CustomWeather, © 2014

Note: Actual official high and low records may vary slightly from our data, if they occured in-between our weather recording intervals... More about our weather records

Advertising

Morden weather history for previous 24 hours

 ConditionsComfort  
Time TempWeatherWind HumidityBarometerVisibility
8:00 PM
Jan 24
15 °FCold.7 mph82%29.92 "HgN/A
7:00 PM15 °FCold.8 mph82%29.89 "HgN/A
6:00 PM16 °FCold.12 mph82%29.83 "HgN/A
5:00 PM18 °FCold.9 mph84%29.83 "HgN/A
4:00 PM18 °FCold.9 mph85%29.79 "HgN/A
3:00 PM18 °FCold.8 mph86%29.78 "HgN/A
2:00 PM19 °FCold.10 mph86%29.77 "HgN/A
1:00 PM19 °FCold.10 mph87%29.76 "HgN/A
12:00 PM20 °FCold.13 mph87%29.75 "HgN/A
11:00 AM22 °FCold.9 mph87%29.78 "HgN/A
10:00 AM23 °FCold.12 mph92%29.75 "HgN/A
9:00 AM26 °FChilly.8 mph93%29.73 "HgN/A
8:00 AM28 °FChilly.7 mph91%29.72 "HgN/A
7:00 AM28 °FChilly.9 mph89%29.73 "HgN/A
6:00 AM29 °FChilly.8 mph97%29.72 "HgN/A
5:00 AM29 °FChilly.5 mph90%29.72 "HgN/A
4:00 AM32 °FChilly.5 mph86%29.73 "HgN/A
3:00 AM31 °FChilly.3 mph87%29.74 "HgN/A
1:00 AM35 °FChilly.5 mph81%29.77 "HgN/A
12:00 AM35 °FChilly.5 mph80%29.77 "HgN/A
11:00 PM
Jan 23
35 °FChilly.8 mph81%29.80 "HgN/A
10:00 PM34 °FChilly.8 mph82%29.82 "HgN/A
9:00 PM35 °FChilly.8 mph81%29.85 "HgN/A
Weather by CustomWeather, © 2014

See weather overviewHow to use our weather pages